Year,Month,Day,Hour,Minute,Value (Times are PST for temperature in C)
2014,07,16,00,00,19.50
2014,07,16,00,01,19.40
2014,07,16,00,02,19.40
2014,07,16,00,03,19.40
2014,07,16,00,04,19.40
2014,07,16,00,05,19.30
2014,07,16,00,06,19.30
2014,07,16,00,07,19.30
2014,07,16,00,08,19.30
2014,07,16,00,09,19.30
2014,07,16,00,10,19.30
2014,07,16,00,11,19.20
2014,07,16,00,12,19.20
2014,07,16,00,13,19.20
2014,07,16,00,14,19.20
2014,07,16,00,15,19.10
2014,07,16,00,16,19.10
2014,07,16,00,17,19.10
2014,07,16,00,18,19.10
2014,07,16,00,19,19.10
2014,07,16,00,20,19.10
2014,07,16,00,21,19.00
2014,07,16,00,22,19.00
2014,07,16,00,23,19.00
2014,07,16,00,24,19.00
2014,07,16,00,25,18.90
2014,07,16,00,26,18.90
2014,07,16,00,27,18.90
2014,07,16,00,28,18.90
2014,07,16,00,29,18.80
2014,07,16,00,30,18.80
2014,07,16,00,31,18.80
2014,07,16,00,32,18.80
2014,07,16,00,33,18.80
2014,07,16,00,34,18.70
2014,07,16,00,35,18.70
2014,07,16,00,36,18.70
2014,07,16,00,37,18.70
2014,07,16,00,38,18.70
2014,07,16,00,39,18.70
2014,07,16,00,40,18.70
2014,07,16,00,41,18.70
2014,07,16,00,42,18.60
2014,07,16,00,43,18.60
2014,07,16,00,44,18.60
2014,07,16,00,45,18.60
2014,07,16,00,46,18.60
2014,07,16,00,47,18.50
2014,07,16,00,48,18.50
2014,07,16,00,49,18.40
2014,07,16,00,50,18.40
2014,07,16,00,51,18.30
2014,07,16,00,52,18.30
2014,07,16,00,53,18.20
2014,07,16,00,54,18.20
2014,07,16,00,55,18.10
2014,07,16,00,56,18.10
2014,07,16,00,57,18.00
2014,07,16,00,58,17.90
2014,07,16,00,59,17.80
2014,07,16,01,00,17.80
2014,07,16,01,01,17.70
2014,07,16,01,02,17.70
2014,07,16,01,03,17.60
2014,07,16,01,04,17.60
2014,07,16,01,05,17.50
2014,07,16,01,06,17.50
2014,07,16,01,07,17.40
2014,07,16,01,08,17.40
2014,07,16,01,09,17.30
2014,07,16,01,10,17.30
2014,07,16,01,11,17.30
2014,07,16,01,12,17.20
2014,07,16,01,13,17.20
2014,07,16,01,14,17.20
2014,07,16,01,15,17.10
2014,07,16,01,16,17.10
2014,07,16,01,17,17.10
2014,07,16,01,18,17.00
2014,07,16,01,19,17.00
2014,07,16,01,20,16.90
2014,07,16,01,21,16.90
2014,07,16,01,22,16.90
2014,07,16,01,23,16.80
2014,07,16,01,24,16.80
2014,07,16,01,25,16.80
2014,07,16,01,26,16.80
2014,07,16,01,27,16.70
2014,07,16,01,28,16.70
2014,07,16,01,29,16.70
2014,07,16,01,30,16.70
2014,07,16,01,31,16.60
2014,07,16,01,32,16.60
2014,07,16,01,33,16.60
2014,07,16,01,34,16.60
2014,07,16,01,35,16.50
2014,07,16,01,36,16.50
2014,07,16,01,37,16.40
2014,07,16,01,38,16.40
2014,07,16,01,39,16.40
2014,07,16,01,40,16.30
2014,07,16,01,41,16.30
2014,07,16,01,42,16.30
2014,07,16,01,43,16.30
2014,07,16,01,44,16.30
2014,07,16,01,45,16.30
2014,07,16,01,46,16.20
2014,07,16,01,47,16.20
2014,07,16,01,48,16.20
2014,07,16,01,49,16.20
2014,07,16,01,50,16.20
2014,07,16,01,51,16.20
2014,07,16,01,52,16.20
2014,07,16,01,53,16.20
2014,07,16,01,54,16.20
2014,07,16,01,55,16.20
2014,07,16,01,56,16.20
2014,07,16,01,57,16.20
2014,07,16,01,58,16.20
2014,07,16,01,59,16.20
2014,07,16,02,00,16.20
2014,07,16,02,01,16.20
2014,07,16,02,02,16.20
2014,07,16,02,03,16.30
2014,07,16,02,04,16.30
2014,07,16,02,05,16.30
2014,07,16,02,06,16.30
2014,07,16,02,07,16.40
2014,07,16,02,08,16.40
2014,07,16,02,09,16.40
2014,07,16,02,10,16.40
2014,07,16,02,11,16.40
2014,07,16,02,12,16.40
2014,07,16,02,13,16.40
2014,07,16,02,14,16.40
2014,07,16,02,15,16.40
2014,07,16,02,16,16.40
2014,07,16,02,17,16.40
2014,07,16,02,18,16.40
2014,07,16,02,19,16.40
2014,07,16,02,20,16.40
2014,07,16,02,21,16.40
2014,07,16,02,22,16.40
2014,07,16,02,23,16.40
2014,07,16,02,24,16.40
2014,07,16,02,25,16.40
2014,07,16,02,26,16.40
2014,07,16,02,27,16.40
2014,07,16,02,28,16.40
2014,07,16,02,29,16.40
2014,07,16,02,30,16.40
2014,07,16,02,31,16.40
2014,07,16,02,32,16.40
2014,07,16,02,33,16.50
2014,07,16,02,34,16.50
2014,07,16,02,35,16.50
2014,07,16,02,36,16.50
2014,07,16,02,37,16.50
2014,07,16,02,38,16.50
2014,07,16,02,39,16.60
2014,07,16,02,40,16.60
2014,07,16,02,41,16.60
2014,07,16,02,42,16.60
2014,07,16,02,43,16.60
2014,07,16,02,44,16.60
2014,07,16,02,45,16.60
2014,07,16,02,46,16.60
2014,07,16,02,47,16.60
2014,07,16,02,48,16.60
2014,07,16,02,49,16.60
2014,07,16,02,50,16.60
2014,07,16,02,51,16.60
2014,07,16,02,52,16.60
2014,07,16,02,53,16.60
2014,07,16,02,54,16.60
2014,07,16,02,55,16.60
2014,07,16,02,56,16.60
2014,07,16,02,57,16.60
2014,07,16,02,58,16.60
2014,07,16,02,59,16.60
2014,07,16,03,00,16.60
2014,07,16,03,01,16.60
2014,07,16,03,02,16.60
2014,07,16,03,03,16.60
2014,07,16,03,04,16.60
2014,07,16,03,05,16.60
2014,07,16,03,06,16.60
2014,07,16,03,07,16.60
2014,07,16,03,08,16.60
2014,07,16,03,09,16.60
2014,07,16,03,10,16.60
2014,07,16,03,11,16.60
2014,07,16,03,12,16.60
2014,07,16,03,13,16.60
2014,07,16,03,14,16.50
2014,07,16,03,15,16.50
2014,07,16,03,16,16.50
2014,07,16,03,17,16.50
2014,07,16,03,18,16.50
2014,07,16,03,19,16.50
2014,07,16,03,20,16.50
2014,07,16,03,21,16.40
2014,07,16,03,22,16.40
2014,07,16,03,23,16.40
2014,07,16,03,24,16.40
2014,07,16,03,25,16.40
2014,07,16,03,26,16.40
2014,07,16,03,27,16.40
2014,07,16,03,28,16.40
2014,07,16,03,29,16.40
2014,07,16,03,30,16.40
2014,07,16,03,31,16.40
2014,07,16,03,32,16.40
2014,07,16,03,33,16.30
2014,07,16,03,34,16.30
2014,07,16,03,35,16.30
2014,07,16,03,36,16.30
2014,07,16,03,37,16.30
2014,07,16,03,38,16.30
2014,07,16,03,39,16.30
2014,07,16,03,40,16.30
2014,07,16,03,41,16.30
2014,07,16,03,42,16.30
2014,07,16,03,43,16.30
2014,07,16,03,44,16.30
2014,07,16,03,45,16.30
2014,07,16,03,46,16.30
2014,07,16,03,47,16.30
2014,07,16,03,48,16.30
2014,07,16,03,49,16.30
2014,07,16,03,50,16.30
2014,07,16,03,51,16.30
2014,07,16,03,52,16.30
2014,07,16,03,53,16.30
2014,07,16,03,54,16.30
2014,07,16,03,55,16.30
2014,07,16,03,56,16.30
2014,07,16,03,57,16.30
2014,07,16,03,58,16.30
2014,07,16,03,59,16.30
2014,07,16,04,00,16.30
2014,07,16,04,01,16.30
2014,07,16,04,02,16.30
2014,07,16,04,03,16.30
2014,07,16,04,04,16.30
2014,07,16,04,05,16.30
2014,07,16,04,06,16.30
2014,07,16,04,07,16.30
2014,07,16,04,08,16.30
2014,07,16,04,09,16.30
2014,07,16,04,10,16.30
2014,07,16,04,11,16.30
2014,07,16,04,12,16.30
2014,07,16,04,13,16.30
2014,07,16,04,14,16.30
2014,07,16,04,15,16.30
2014,07,16,04,16,16.30
2014,07,16,04,17,16.30
2014,07,16,04,18,16.30
2014,07,16,04,19,16.30
2014,07,16,04,20,16.30
2014,07,16,04,21,16.20
2014,07,16,04,22,16.20
2014,07,16,04,23,16.10
2014,07,16,04,24,16.00
2014,07,16,04,25,15.90
2014,07,16,04,26,15.80
2014,07,16,04,27,15.80
2014,07,16,04,28,15.70
2014,07,16,04,29,15.60
2014,07,16,04,30,15.50
2014,07,16,04,31,15.50
2014,07,16,04,32,15.40
2014,07,16,04,33,15.30
2014,07,16,04,34,15.20
2014,07,16,04,35,15.10
2014,07,16,04,36,15.00
2014,07,16,04,37,15.00
2014,07,16,04,38,15.00
2014,07,16,04,39,14.90
2014,07,16,04,40,14.80
2014,07,16,04,41,14.80
2014,07,16,04,42,14.70
2014,07,16,04,43,14.70
2014,07,16,04,44,14.60
2014,07,16,04,45,14.60
2014,07,16,04,46,14.50
2014,07,16,04,47,14.50
2014,07,16,04,48,14.40
2014,07,16,04,49,14.40
2014,07,16,04,50,14.40
2014,07,16,04,51,14.30
2014,07,16,04,52,14.30
2014,07,16,04,53,14.30
2014,07,16,04,54,14.20
2014,07,16,04,55,14.20
2014,07,16,04,56,14.20
2014,07,16,04,57,14.20
2014,07,16,04,58,14.20
2014,07,16,04,59,14.10
2014,07,16,05,00,14.10
2014,07,16,05,01,14.10
2014,07,16,05,02,14.10
2014,07,16,05,03,14.00
2014,07,16,05,04,14.00
2014,07,16,05,05,14.00
2014,07,16,05,06,14.00
2014,07,16,05,07,13.90
2014,07,16,05,08,13.90
2014,07,16,05,09,13.90
2014,07,16,05,10,13.90
2014,07,16,05,11,13.80
2014,07,16,05,12,13.80
2014,07,16,05,13,13.80
2014,07,16,05,14,13.80
2014,07,16,05,15,13.80
2014,07,16,05,16,13.80
2014,07,16,05,17,13.70
2014,07,16,05,18,13.70
2014,07,16,05,19,13.70
2014,07,16,05,20,13.70
2014,07,16,05,21,13.70
2014,07,16,05,22,13.70
2014,07,16,05,23,13.70
2014,07,16,05,24,13.70
2014,07,16,05,25,13.70
2014,07,16,05,26,13.70
2014,07,16,05,27,13.60
2014,07,16,05,28,13.60
2014,07,16,05,29,13.60
2014,07,16,05,30,13.60
2014,07,16,05,31,13.60
2014,07,16,05,32,13.60
2014,07,16,05,33,13.60
2014,07,16,05,34,13.60
2014,07,16,05,35,13.60
2014,07,16,05,36,13.60
2014,07,16,05,37,13.60
2014,07,16,05,38,13.60
2014,07,16,05,39,13.50
2014,07,16,05,40,13.50
2014,07,16,05,41,13.50
2014,07,16,05,42,13.50
2014,07,16,05,43,13.40
2014,07,16,05,44,13.40
2014,07,16,05,45,13.40
2014,07,16,05,46,13.40
2014,07,16,05,47,13.40
2014,07,16,05,48,13.30
2014,07,16,05,49,13.30
2014,07,16,05,50,13.30
2014,07,16,05,51,13.30
2014,07,16,05,52,13.30
2014,07,16,05,53,13.30
2014,07,16,05,54,13.30
2014,07,16,05,55,13.30
2014,07,16,05,56,13.30
2014,07,16,05,57,13.30
2014,07,16,05,58,13.30
2014,07,16,05,59,13.30
2014,07,16,06,00,13.30
2014,07,16,06,01,13.30
2014,07,16,06,02,13.30
2014,07,16,06,03,13.30
2014,07,16,06,04,13.30
2014,07,16,06,05,13.30
2014,07,16,06,06,13.30
2014,07,16,06,07,13.30
2014,07,16,06,08,13.30
2014,07,16,06,09,13.30
2014,07,16,06,10,13.30
2014,07,16,06,11,13.30
2014,07,16,06,12,13.40
2014,07,16,06,13,13.40
2014,07,16,06,14,13.40
2014,07,16,06,15,13.40
2014,07,16,06,16,13.40
2014,07,16,06,17,13.40
2014,07,16,06,18,13.40
2014,07,16,06,19,13.40
2014,07,16,06,20,13.40
2014,07,16,06,21,13.50
2014,07,16,06,22,13.50
2014,07,16,06,23,13.50
2014,07,16,06,24,13.50
2014,07,16,06,25,13.60
2014,07,16,06,26,13.60
2014,07,16,06,27,13.60
2014,07,16,06,28,13.60
2014,07,16,06,29,13.60
2014,07,16,06,30,13.70
2014,07,16,06,31,13.70
2014,07,16,06,32,13.70
2014,07,16,06,33,13.70
2014,07,16,06,34,13.70
2014,07,16,06,35,13.80
2014,07,16,06,36,13.80
2014,07,16,06,37,13.80
2014,07,16,06,38,13.80
2014,07,16,06,39,13.90
2014,07,16,06,40,13.90
2014,07,16,06,41,13.90
2014,07,16,06,42,14.00
2014,07,16,06,43,14.00
2014,07,16,06,44,14.10
2014,07,16,06,45,14.10
2014,07,16,06,46,14.10
2014,07,16,06,47,14.20
2014,07,16,06,48,14.20
2014,07,16,06,49,14.20
2014,07,16,06,50,14.30
2014,07,16,06,51,14.30
2014,07,16,06,52,14.30
2014,07,16,06,53,14.40
2014,07,16,06,54,14.40
2014,07,16,06,55,14.40
2014,07,16,06,56,14.50
2014,07,16,06,57,14.50
2014,07,16,06,58,14.60
2014,07,16,06,59,14.60
2014,07,16,07,00,14.70
2014,07,16,07,01,14.70
2014,07,16,07,02,14.80
2014,07,16,07,03,14.80
2014,07,16,07,04,14.90
2014,07,16,07,05,15.00
2014,07,16,07,06,15.00
2014,07,16,07,07,15.00
2014,07,16,07,08,15.00
2014,07,16,07,09,15.00
2014,07,16,07,10,15.10
2014,07,16,07,11,15.20
2014,07,16,07,12,15.30
2014,07,16,07,13,15.30
2014,07,16,07,14,15.50
2014,07,16,07,15,15.50
2014,07,16,07,16,15.60
2014,07,16,07,17,15.70
2014,07,16,07,18,15.70
2014,07,16,07,19,15.80
2014,07,16,07,20,15.80
2014,07,16,07,21,15.90
2014,07,16,07,22,15.90
2014,07,16,07,23,16.00
2014,07,16,07,24,16.00
2014,07,16,07,25,16.10
2014,07,16,07,26,16.10
2014,07,16,07,27,16.20
2014,07,16,07,28,16.20
2014,07,16,07,29,16.30
2014,07,16,07,30,16.30
2014,07,16,07,31,16.40
2014,07,16,07,32,16.40
2014,07,16,07,33,16.40
2014,07,16,07,34,16.50
2014,07,16,07,35,16.50
2014,07,16,07,36,16.60
2014,07,16,07,37,16.60
2014,07,16,07,38,16.60
2014,07,16,07,39,16.60
2014,07,16,07,40,16.70
2014,07,16,07,41,16.70
2014,07,16,07,42,16.70
2014,07,16,07,43,16.80
2014,07,16,07,44,16.80
2014,07,16,07,45,16.80
2014,07,16,07,46,16.90
2014,07,16,07,47,16.90
2014,07,16,07,48,17.00
2014,07,16,07,49,17.10
2014,07,16,07,50,17.10
2014,07,16,07,51,17.20
2014,07,16,07,52,17.20
2014,07,16,07,53,17.30
2014,07,16,07,54,17.40
2014,07,16,07,55,17.40
2014,07,16,07,56,17.40
2014,07,16,07,57,17.50
2014,07,16,07,58,17.60
2014,07,16,07,59,17.70
2014,07,16,08,00,17.70
2014,07,16,08,01,17.80
2014,07,16,08,02,17.90
2014,07,16,08,03,18.00
2014,07,16,08,04,18.10
2014,07,16,08,05,18.20
2014,07,16,08,06,18.30
2014,07,16,08,07,18.50
2014,07,16,08,08,18.60
2014,07,16,08,09,18.70
2014,07,16,08,10,18.80
2014,07,16,08,11,18.90
2014,07,16,08,12,18.90
2014,07,16,08,13,19.00
2014,07,16,08,14,19.10
2014,07,16,08,15,19.20
2014,07,16,08,16,19.30
2014,07,16,08,17,19.40
2014,07,16,08,18,19.50
2014,07,16,08,19,19.60
2014,07,16,08,20,19.70
2014,07,16,08,21,19.80
2014,07,16,08,22,19.90
2014,07,16,08,23,20.10
2014,07,16,08,24,20.30
2014,07,16,08,25,20.40
2014,07,16,08,26,20.50
2014,07,16,08,27,20.60
2014,07,16,08,28,20.60
2014,07,16,08,29,20.70
2014,07,16,08,30,20.80
2014,07,16,08,31,20.80
2014,07,16,08,32,20.90
2014,07,16,08,33,20.90
2014,07,16,08,34,21.00
2014,07,16,08,35,21.10
2014,07,16,08,36,21.10
2014,07,16,08,37,21.10
2014,07,16,08,38,21.10
2014,07,16,08,39,21.10
2014,07,16,08,40,21.00
2014,07,16,08,41,21.00
2014,07,16,08,42,20.90
2014,07,16,08,43,20.80
2014,07,16,08,44,20.70
2014,07,16,08,45,20.60
2014,07,16,08,46,20.60
2014,07,16,08,47,20.50
2014,07,16,08,48,20.40
2014,07,16,08,49,20.30
2014,07,16,08,50,20.30
2014,07,16,08,51,20.20
2014,07,16,08,52,20.10
2014,07,16,08,53,20.00
2014,07,16,08,54,19.80
2014,07,16,08,55,19.70
2014,07,16,08,56,19.60
2014,07,16,08,57,19.60
2014,07,16,08,58,19.60
2014,07,16,08,59,19.60
2014,07,16,09,00,19.60
2014,07,16,09,01,19.60
2014,07,16,09,02,19.60
2014,07,16,09,03,19.60
2014,07,16,09,04,19.70
2014,07,16,09,05,19.70
2014,07,16,09,06,19.70
2014,07,16,09,07,19.80
2014,07,16,09,08,19.80
2014,07,16,09,09,19.80
2014,07,16,09,10,19.70
2014,07,16,09,11,19.70
2014,07,16,09,12,19.70
2014,07,16,09,13,19.80
2014,07,16,09,14,19.80
2014,07,16,09,15,19.80
2014,07,16,09,16,19.80
2014,07,16,09,17,19.90
2014,07,16,09,18,19.90
2014,07,16,09,19,20.00
2014,07,16,09,20,20.00
2014,07,16,09,21,20.10
2014,07,16,09,22,20.10
2014,07,16,09,23,20.20
2014,07,16,09,24,20.30
2014,07,16,09,25,20.30
2014,07,16,09,26,20.40
2014,07,16,09,27,20.40
2014,07,16,09,28,20.50
2014,07,16,09,29,20.60
2014,07,16,09,30,20.70
2014,07,16,09,31,20.70
2014,07,16,09,32,20.80
2014,07,16,09,33,20.90
2014,07,16,09,34,21.00
2014,07,16,09,35,21.00
2014,07,16,09,36,21.10
2014,07,16,09,37,21.20
2014,07,16,09,38,21.20
2014,07,16,09,39,21.10
2014,07,16,09,40,21.10
2014,07,16,09,41,21.00
2014,07,16,09,42,20.90
2014,07,16,09,43,20.80
2014,07,16,09,44,20.80
2014,07,16,09,45,20.80
2014,07,16,09,46,20.80
2014,07,16,09,47,20.80
2014,07,16,09,48,20.80
2014,07,16,09,49,20.90
2014,07,16,09,50,20.90
2014,07,16,09,51,21.00
2014,07,16,09,52,21.00
2014,07,16,09,53,21.10
2014,07,16,09,54,21.10
2014,07,16,09,55,21.20
2014,07,16,09,56,21.20
2014,07,16,09,57,21.30
2014,07,16,09,58,21.40
2014,07,16,09,59,21.40
2014,07,16,10,00,21.50
2014,07,16,10,01,21.50
2014,07,16,10,02,21.50
2014,07,16,10,03,21.50
2014,07,16,10,04,21.50
2014,07,16,10,05,21.50
2014,07,16,10,06,21.50
2014,07,16,10,07,21.50
2014,07,16,10,08,21.50
2014,07,16,10,09,21.50
2014,07,16,10,10,21.50
2014,07,16,10,11,21.60
2014,07,16,10,12,21.60
2014,07,16,10,13,21.70
2014,07,16,10,14,21.70
2014,07,16,10,15,21.70
2014,07,16,10,16,21.70
2014,07,16,10,17,21.70
2014,07,16,10,18,21.70
2014,07,16,10,19,21.70
2014,07,16,10,20,21.70
2014,07,16,10,21,21.70
2014,07,16,10,22,21.70
2014,07,16,10,23,21.70
2014,07,16,10,24,21.60
2014,07,16,10,25,21.60
2014,07,16,10,26,21.60
2014,07,16,10,27,21.60
2014,07,16,10,28,21.60
2014,07,16,10,29,21.60
2014,07,16,10,30,21.60
2014,07,16,10,31,21.60
2014,07,16,10,32,21.60
2014,07,16,10,33,21.70
2014,07,16,10,34,21.70
2014,07,16,10,35,21.70
2014,07,16,10,36,21.70
2014,07,16,10,37,21.60
2014,07,16,10,38,21.60
2014,07,16,10,39,21.60
2014,07,16,10,40,21.50
2014,07,16,10,41,21.40
2014,07,16,10,42,21.30
2014,07,16,10,43,21.10
2014,07,16,10,44,21.00
2014,07,16,10,45,20.90
2014,07,16,10,46,20.80
2014,07,16,10,47,20.70
2014,07,16,10,48,20.70
2014,07,16,10,49,20.70
2014,07,16,10,50,20.80
2014,07,16,10,51,20.70
2014,07,16,10,52,20.70
2014,07,16,10,53,20.60
2014,07,16,10,54,20.60
2014,07,16,10,55,20.50
2014,07,16,10,56,20.50
2014,07,16,10,57,20.50
2014,07,16,10,58,20.60
2014,07,16,10,59,20.70
2014,07,16,11,00,20.80
2014,07,16,11,01,20.90
2014,07,16,11,02,21.00
2014,07,16,11,03,21.10
2014,07,16,11,04,21.30
2014,07,16,11,05,21.30
2014,07,16,11,06,21.20
2014,07,16,11,07,21.10
2014,07,16,11,08,21.10
2014,07,16,11,09,21.10
2014,07,16,11,10,21.00
2014,07,16,11,11,20.90
2014,07,16,11,12,20.90
2014,07,16,11,13,20.90
2014,07,16,11,14,20.90
2014,07,16,11,15,20.80
2014,07,16,11,16,20.80
2014,07,16,11,17,20.90
2014,07,16,11,18,20.90
2014,07,16,11,19,20.90
2014,07,16,11,20,20.90
2014,07,16,11,21,20.90
2014,07,16,11,22,20.80
2014,07,16,11,23,20.80
2014,07,16,11,24,20.80
2014,07,16,11,25,20.80
2014,07,16,11,26,20.80
2014,07,16,11,27,20.90
2014,07,16,11,28,21.00
2014,07,16,11,29,21.10
2014,07,16,11,30,21.20
2014,07,16,11,31,21.20
2014,07,16,11,32,21.20
2014,07,16,11,33,21.20
2014,07,16,11,34,21.10
2014,07,16,11,35,21.00
2014,07,16,11,36,21.00
2014,07,16,11,37,21.10
2014,07,16,11,38,21.10
2014,07,16,11,39,21.10
2014,07,16,11,40,21.10
2014,07,16,11,41,21.20
2014,07,16,11,42,21.30
2014,07,16,11,43,21.30
2014,07,16,11,44,21.40
2014,07,16,11,45,21.40
2014,07,16,11,46,21.50
2014,07,16,11,47,21.60
2014,07,16,11,48,21.60
2014,07,16,11,49,21.60
2014,07,16,11,50,21.70
2014,07,16,11,51,21.80
2014,07,16,11,52,21.90
2014,07,16,11,53,21.90
2014,07,16,11,54,22.00
2014,07,16,11,55,21.90
2014,07,16,11,56,21.90
2014,07,16,11,57,21.80
2014,07,16,11,58,21.70
2014,07,16,11,59,21.70
2014,07,16,12,00,21.70
2014,07,16,12,01,21.70
2014,07,16,12,02,21.70
2014,07,16,12,03,21.70
2014,07,16,12,04,21.80
2014,07,16,12,05,21.80
2014,07,16,12,06,21.80
2014,07,16,12,07,21.80
2014,07,16,12,08,21.80
2014,07,16,12,09,21.80
2014,07,16,12,10,21.90
2014,07,16,12,11,21.90
2014,07,16,12,12,22.00
2014,07,16,12,13,22.00
2014,07,16,12,14,22.10
2014,07,16,12,15,22.10
2014,07,16,12,16,22.20
2014,07,16,12,17,22.20
2014,07,16,12,18,22.30
2014,07,16,12,19,22.40
2014,07,16,12,20,22.50
2014,07,16,12,21,22.50
2014,07,16,12,22,22.50
2014,07,16,12,23,22.40
2014,07,16,12,24,22.40
2014,07,16,12,25,22.40
2014,07,16,12,26,22.50
2014,07,16,12,27,22.50
2014,07,16,12,28,22.50
2014,07,16,12,29,22.40
2014,07,16,12,30,22.40
2014,07,16,12,31,22.50
2014,07,16,12,32,22.40
2014,07,16,12,33,22.40
2014,07,16,12,34,22.30
2014,07,16,12,35,22.30
2014,07,16,12,36,22.30
2014,07,16,12,37,22.30
2014,07,16,12,38,22.30
2014,07,16,12,39,22.30
2014,07,16,12,40,22.40
2014,07,16,12,41,22.40
2014,07,16,12,42,22.40
2014,07,16,12,43,22.40
2014,07,16,12,44,22.50
2014,07,16,12,45,22.40
2014,07,16,12,46,22.40
2014,07,16,12,47,22.40
2014,07,16,12,48,22.50
2014,07,16,12,49,22.50
2014,07,16,12,50,22.60
2014,07,16,12,51,22.70
2014,07,16,12,52,22.80
2014,07,16,12,53,22.90
2014,07,16,12,54,23.00
2014,07,16,12,55,23.10
2014,07,16,12,56,23.10
2014,07,16,12,57,23.20
2014,07,16,12,58,23.20
2014,07,16,12,59,23.30
2014,07,16,13,00,23.20
2014,07,16,13,01,23.20
2014,07,16,13,02,23.10
2014,07,16,13,03,23.10
2014,07,16,13,04,23.10
2014,07,16,13,05,23.10
2014,07,16,13,06,23.00
2014,07,16,13,07,22.80
2014,07,16,13,08,22.60
2014,07,16,13,09,22.60
2014,07,16,13,10,22.60
2014,07,16,13,11,22.60
2014,07,16,13,12,22.50
2014,07,16,13,13,22.50
2014,07,16,13,14,22.50
2014,07,16,13,15,22.50
2014,07,16,13,16,22.60
2014,07,16,13,17,22.60
2014,07,16,13,18,22.70
2014,07,16,13,19,22.70
2014,07,16,13,20,22.60
2014,07,16,13,21,22.50
2014,07,16,13,22,22.40
2014,07,16,13,23,22.30
2014,07,16,13,24,22.30
2014,07,16,13,25,22.20
2014,07,16,13,26,22.10
2014,07,16,13,27,22.10
2014,07,16,13,28,22.10
2014,07,16,13,29,22.00
2014,07,16,13,30,22.00
2014,07,16,13,31,22.10
2014,07,16,13,32,22.10
2014,07,16,13,33,22.20
2014,07,16,13,34,22.30
2014,07,16,13,35,22.30
2014,07,16,13,36,22.30
2014,07,16,13,37,22.30
2014,07,16,13,38,22.40
2014,07,16,13,39,22.40
2014,07,16,13,40,22.40
2014,07,16,13,41,22.40
2014,07,16,13,42,22.40
2014,07,16,13,43,22.30
2014,07,16,13,44,22.40
2014,07,16,13,45,22.50
2014,07,16,13,46,22.60
2014,07,16,13,47,22.70
2014,07,16,13,48,22.80
2014,07,16,13,49,22.90
2014,07,16,13,50,22.90
2014,07,16,13,51,23.00
2014,07,16,13,52,23.00
2014,07,16,13,53,23.10
2014,07,16,13,54,23.20
2014,07,16,13,55,23.20
2014,07,16,13,56,23.30
2014,07,16,13,57,23.30
2014,07,16,13,58,23.30
2014,07,16,13,59,23.40
2014,07,16,14,00,23.30
2014,07,16,14,01,23.30
2014,07,16,14,02,23.30
2014,07,16,14,03,23.30
2014,07,16,14,04,23.30
2014,07,16,14,05,23.30
2014,07,16,14,06,23.30
2014,07,16,14,07,23.30
2014,07,16,14,08,23.40
2014,07,16,14,09,23.30
2014,07,16,14,10,23.20
2014,07,16,14,11,23.10
2014,07,16,14,12,22.90
2014,07,16,14,13,22.90
2014,07,16,14,14,22.90
2014,07,16,14,15,22.90
2014,07,16,14,16,22.80
2014,07,16,14,17,22.90
2014,07,16,14,18,23.00
2014,07,16,14,19,23.10
2014,07,16,14,20,23.20
2014,07,16,14,21,23.30
2014,07,16,14,22,23.20
2014,07,16,14,23,23.20
2014,07,16,14,24,23.20
2014,07,16,14,25,23.20
2014,07,16,14,26,23.10
2014,07,16,14,27,23.10
2014,07,16,14,28,23.20
2014,07,16,14,29,23.20
2014,07,16,14,30,23.20
2014,07,16,14,31,23.20
2014,07,16,14,32,23.20
2014,07,16,14,33,23.30
2014,07,16,14,34,23.40
2014,07,16,14,35,23.30
2014,07,16,14,36,23.10
2014,07,16,14,37,23.00
2014,07,16,14,38,22.90
2014,07,16,14,39,22.80
2014,07,16,14,40,22.80
2014,07,16,14,41,22.80
2014,07,16,14,42,22.80
2014,07,16,14,43,22.80
2014,07,16,14,44,22.80
2014,07,16,14,45,22.80
2014,07,16,14,46,22.90
2014,07,16,14,47,22.90
2014,07,16,14,48,23.00
2014,07,16,14,49,23.10
2014,07,16,14,50,23.10
2014,07,16,14,51,23.20
2014,07,16,14,52,23.30
2014,07,16,14,53,23.40
2014,07,16,14,54,23.50
2014,07,16,14,55,23.60
2014,07,16,14,56,23.60
2014,07,16,14,57,23.50
2014,07,16,14,58,23.40
2014,07,16,14,59,23.20
2014,07,16,15,00,23.10
2014,07,16,15,01,22.90
2014,07,16,15,02,22.80
2014,07,16,15,03,22.80
2014,07,16,15,04,22.90
2014,07,16,15,05,23.00
2014,07,16,15,06,23.20
2014,07,16,15,07,23.40
2014,07,16,15,08,23.50
2014,07,16,15,09,23.70
2014,07,16,15,10,23.80
2014,07,16,15,11,24.00
2014,07,16,15,12,24.10
2014,07,16,15,13,24.20
2014,07,16,15,14,24.30
2014,07,16,15,15,24.40
2014,07,16,15,16,24.60
2014,07,16,15,17,24.70
2014,07,16,15,18,24.80
2014,07,16,15,19,24.90
2014,07,16,15,20,25.00
2014,07,16,15,21,25.10
2014,07,16,15,22,25.20
2014,07,16,15,23,25.30
2014,07,16,15,24,25.40
2014,07,16,15,25,25.50
2014,07,16,15,26,25.60
2014,07,16,15,27,25.60
2014,07,16,15,28,25.70
2014,07,16,15,29,25.70
2014,07,16,15,30,25.70
2014,07,16,15,31,25.80
2014,07,16,15,32,25.90
2014,07,16,15,33,25.90
2014,07,16,15,34,25.90
2014,07,16,15,35,26.00
2014,07,16,15,36,26.00
2014,07,16,15,37,26.10
2014,07,16,15,38,26.10
2014,07,16,15,39,26.20
2014,07,16,15,40,26.30
2014,07,16,15,41,26.50
2014,07,16,15,42,26.60
2014,07,16,15,43,26.70
2014,07,16,15,44,26.80
2014,07,16,15,45,26.80
2014,07,16,15,46,26.70
2014,07,16,15,47,26.70
2014,07,16,15,48,26.60
2014,07,16,15,49,26.60
2014,07,16,15,50,26.50
2014,07,16,15,51,26.40
2014,07,16,15,52,26.30
2014,07,16,15,53,26.30
2014,07,16,15,54,26.30
2014,07,16,15,55,26.30
2014,07,16,15,56,26.20
2014,07,16,15,57,26.20
2014,07,16,15,58,26.20
2014,07,16,15,59,26.10
2014,07,16,16,00,26.00
2014,07,16,16,01,25.90
2014,07,16,16,02,25.90
2014,07,16,16,03,25.80
2014,07,16,16,04,25.70
2014,07,16,16,05,25.70
2014,07,16,16,06,25.70
2014,07,16,16,07,25.70
2014,07,16,16,08,25.60
2014,07,16,16,09,25.50
2014,07,16,16,10,25.50
2014,07,16,16,11,25.40
2014,07,16,16,12,25.40
2014,07,16,16,13,25.40
2014,07,16,16,14,25.30
2014,07,16,16,15,25.30
2014,07,16,16,16,25.40
2014,07,16,16,17,25.50
2014,07,16,16,18,25.60
2014,07,16,16,19,25.70
2014,07,16,16,20,25.80
2014,07,16,16,21,25.90
2014,07,16,16,22,25.90
2014,07,16,16,23,26.10
2014,07,16,16,24,26.20
2014,07,16,16,25,26.30
2014,07,16,16,26,26.40
2014,07,16,16,27,26.60
2014,07,16,16,28,26.70
2014,07,16,16,29,26.80
2014,07,16,16,30,26.90
2014,07,16,16,31,27.10
2014,07,16,16,32,27.30
2014,07,16,16,33,27.50
2014,07,16,16,34,27.80
2014,07,16,16,35,28.00
2014,07,16,16,36,28.10
2014,07,16,16,37,28.30
2014,07,16,16,38,28.40
2014,07,16,16,39,28.50
2014,07,16,16,40,28.60
2014,07,16,16,41,28.70
2014,07,16,16,42,28.70
2014,07,16,16,43,28.70
2014,07,16,16,44,28.60
2014,07,16,16,45,28.40
2014,07,16,16,46,28.30
2014,07,16,16,47,28.10
2014,07,16,16,48,27.90
2014,07,16,16,49,27.90
2014,07,16,16,50,27.80
2014,07,16,16,51,27.80
2014,07,16,16,52,27.70
2014,07,16,16,53,27.60
2014,07,16,16,54,27.60
2014,07,16,16,55,27.60
2014,07,16,16,56,27.60
2014,07,16,16,57,27.60
2014,07,16,16,58,27.60
2014,07,16,16,59,27.50
2014,07,16,17,00,27.30
2014,07,16,17,01,27.20
2014,07,16,17,02,27.10
2014,07,16,17,03,27.00
2014,07,16,17,04,27.00
2014,07,16,17,05,26.90
2014,07,16,17,06,26.90
2014,07,16,17,07,26.80
2014,07,16,17,08,26.80
2014,07,16,17,09,26.80
2014,07,16,17,10,26.90
2014,07,16,17,11,26.90
2014,07,16,17,12,27.00
2014,07,16,17,13,27.10
2014,07,16,17,14,27.30
2014,07,16,17,15,27.50
2014,07,16,17,16,27.80
2014,07,16,17,17,28.00
2014,07,16,17,18,28.20
2014,07,16,17,19,28.30